This is the latest recevied weather packets stored in our database for station/object KD4PMP. If no packets are shown the sender has not sent any weather packets the latest 10 day(s).
| Time | Temp. | Humidity | Pressure | Rain* | Wind** | Luminosity | Snow |
|---|---|---|---|---|---|---|---|
| 1788471674 | 36.67° C | 50% | 1012.1 hPa | 0 mm | - | - | - |
| 1788471068 | 37.22° C | 48% | 1012.1 hPa | 0 mm | - | - | - |
| 1788470462 | 37.78° C | 47% | 1012.2 hPa | 0 mm | - | - | - |
| 1788469855 | 38.33° C | 47% | 1012.4 hPa | 0 mm | - | - | - |
| 1788469249 | 37.78° C | 47% | 1012.3 hPa | 0 mm | - | - | - |
| 1788468654 | 38.89° C | 45% | 1012.6 hPa | 0 mm | - | - | - |
| 1788468036 | 38.89° C | 46% | 1012.6 hPa | 0 mm | - | - | - |
| 1788467429 | 38.33° C | 45% | 1012.7 hPa | 0 mm | - | - | - |
| 1788466823 | 38.33° C | 45% | 1012.8 hPa | 0 mm | - | - | - |
| 1788466217 | 37.78° C | 46% | 1012.9 hPa | 0 mm | - | - | - |
| 1788465620 | 37.22° C | 49% | 1012.9 hPa | 0 mm | - | - | - |
| 1788465004 | 37.22° C | 46% | 1013.2 hPa | 0 mm | - | - | - |
| 1788464398 | 37.22° C | 47% | 1013.4 hPa | 0 mm | - | - | - |
| 1788463792 | 37.78° C | 47% | 1013.4 hPa | 0 mm | - | - | - |
| 1788463185 | 38.33° C | 46% | 1013.4 hPa | 0 mm | - | - | - |
| 1788462579 | 37.78° C | 46% | 1013.5 hPa | 0 mm | - | - | - |
| 1788461973 | 38.33° C | 46% | 1013.7 hPa | 0 mm | - | - | - |
| 1788461367 | 37.78° C | 46% | 1013.7 hPa | 0 mm | - | - | - |
| 1788460760 | 38.33° C | 45% | 1013.8 hPa | 0 mm | - | - | - |
| 1788460154 | 37.78° C | 46% | 1014 hPa | 0 mm | - | - | - |
| 1788459548 | 38.33° C | 46% | 1014.1 hPa | 0 mm | - | - | - |
| 1788458941 | 37.78° C | 46% | 1014.3 hPa | 0 mm | - | - | - |
| 1788458335 | 37.78° C | 48% | 1014.4 hPa | 0 mm | - | - | - |
| 1788457729 | 37.22° C | 48% | 1014.5 hPa | 0 mm | - | - | - |
| 1788457122 | 37.22° C | 48% | 1014.6 hPa | 0 mm | - | - | - |
* Rain latest hour (hover to see other rain measurements)
** Current wind speed in m/s (hover to see current wind gust speed)